User: anonymous   Login
Location: Vancouver
(49.2500°N, 123.1330°W)
Time: 18:39:38
(UTC-07:00)
Language:

Iridium 35 - Orbit

View from above orbital plane
View from above orbital plane
View from above satellite
View from above satellite

Ground track
Ground track

The orbit data is extracted from the following two-line orbital elements,

1 24966U 97056B   15184.28694460  .00000240  00000-0  78549-4 0  9995
2 24966 086.3966 257.4964 0002323 094.2351 265.9111 14.34216358930068
Epoch (UTC): 03 July 2015 06:53:12
Eccentricity: 0.0002323
inclination: 86.3966°
perigee height: 776 km
apogee height: 779 km
right ascension of ascending node: 257.4964°
argument of perigee: 94.2351°
revolutions per day: 14.34216358
mean anomaly at epoch: 265.9111°
orbit number at epoch: 93006

The dashed part of the orbit path shows where the satellite is in the earth's shadow,  

DLR